Volver al catálogo

TRANSIT 11 DEB

ActivoPO
NORAD 11991·DEBRIS·🇺🇸 United States

Lanzado Jan 28, 1966 desde Vandenberg Space Force Base

Loading…

Próximos Pases (próximas 24 horas)

TLE

ActualizadoSource: Space-Track

Época: Sep 14, 2026, 04:38 UTC

1 11991U 66005H   26257.19332855  .00000418  00000-0  31911-3 0  9997
2 11991  90.1631 343.9999 0176222  68.7695 320.9383 13.84976247 33724

Sigue TRANSIT 11 DEB en tiempo real con AllMySat

Download on the App Store